This is the latest recevied weather packets stored in our database for station/object W0AKY-13. If no packets are shown the sender has not sent any weather packets the latest 10 day(s).
| Time | Temp. | Humidity | Pressure | Rain* | Wind** | Luminosity | Snow |
|---|---|---|---|---|---|---|---|
| 1777733262 | 12.22° C | 42% | 1023.1 hPa | 0 mm | - | 357 W/m² | - |
| 1777732655 | 11.67° C | 44% | 1023.3 hPa | 0 mm | - | 334 W/m² | - |
| 1777732353 | 11.67° C | 46% | 1023.3 hPa | 0 mm | - | 318 W/m² | - |
| 1777732051 | 10.56° C | 48% | 1023.4 hPa | 0 mm | - | 304 W/m² | - |
| 1777731747 | 10.56° C | 49% | 1023.2 hPa | 0 mm | - | 80 W/m² | - |
| 1777731444 | 10° C | 51% | 1023.3 hPa | 0 mm | - | 40 W/m² | - |
| 1777731143 | 9.44° C | 54% | 1023.5 hPa | 0 mm | - | 34 W/m² | - |
| 1777730840 | 9.44° C | 60% | 1023.2 hPa | 0 mm | - | 32 W/m² | - |
| 1777730538 | 8.89° C | 64% | 1023.3 hPa | 0 mm | - | 32 W/m² | - |
| 1777730233 | 8.89° C | 60% | 1023.4 hPa | 0 mm | - | 31 W/m² | - |
| 1777729930 | 8.33° C | 61% | 1023.4 hPa | 0 mm | - | 30 W/m² | - |
| 1777729324 | 7.78° C | 67% | 1023.6 hPa | 0 mm | - | 28 W/m² | - |
| 1777729020 | 7.22° C | 65% | 1023.5 hPa | 0 mm | - | 28 W/m² | - |
| 1777728716 | 6.67° C | 71% | 1023.1 hPa | 0 mm | - | 27 W/m² | - |
| 1777728413 | 6.67° C | 69% | 1023.2 hPa | 0 mm | - | 27 W/m² | - |
| 1777728110 | 6.11° C | 72% | 1023.2 hPa | 0 mm | - | 26 W/m² | - |
| 1777727807 | 5.56° C | 73% | 1023.5 hPa | 0 mm | - | 35 W/m² | - |
| 1777727504 | 5° C | 75% | 1023.3 hPa | 0 mm | - | 26 W/m² | - |
| 1777727202 | 4.44° C | 78% | 1023.3 hPa | 0 mm | - | 30 W/m² | - |
| 1777726595 | 3.89° C | 78% | 1023.1 hPa | 0 mm | - | 22 W/m² | - |
| 1777725385 | 1.67° C | 92% | 1023.3 hPa | 0 mm | - | 19 W/m² | - |
| 1777725081 | 1.11° C | 92% | 1023.6 hPa | 0 mm | - | 18 W/m² | - |
| 1777724778 | 0.56° C | 92% | 1023.2 hPa | 0 mm | - | 17 W/m² | - |
| 1777724475 | 0.56° C | 92% | 1023.2 hPa | 0 mm | - | 16 W/m² | - |
| 1777724173 | 0.56° C | 92% | 1023 hPa | 0 mm | - | 15 W/m² | - |
* Rain latest hour (hover to see other rain measurements)
** Current wind speed in m/s (hover to see current wind gust speed)